This is the latest recevied weather packets stored in our database for station/object KG0HG. If no packets are shown the sender has not sent any weather packets the latest 10 day(s).
| Time | Temp. | Humidity | Pressure | Rain* | Wind** | Luminosity | Snow |
|---|---|---|---|---|---|---|---|
| 1777481943 | 13.33° C | 60% | 1021.3 hPa | 0 mm | - | 106 W/m² | - |
| 1777481640 | 13.33° C | 60% | 1021 hPa | 0 mm | - | 233 W/m² | - |
| 1777481337 | 13.33° C | 62% | 1021.4 hPa | 0 mm | - | 93 W/m² | - |
| 1777481034 | 13.33° C | 62% | 1021.4 hPa | 0 mm | - | 85 W/m² | - |
| 1777480730 | 12.78° C | 63% | 1021.3 hPa | 0 mm | - | 135 W/m² | - |
| 1777480427 | 13.33° C | 63% | 1021 hPa | 0 mm | - | 97 W/m² | - |
| 1777480123 | 13.33° C | 63% | 1021.5 hPa | 0 mm | - | 155 W/m² | - |
| 1777479819 | 13.33° C | 62% | 1021.2 hPa | 0 mm | - | 127 W/m² | - |
| 1777479517 | 13.33° C | 62% | 1021 hPa | 0 mm | - | 240 W/m² | - |
| 1777479213 | 13.33° C | 62% | 1021.2 hPa | 0 mm | - | 92 W/m² | - |
| 1777478910 | 12.78° C | 63% | 1021.1 hPa | 0 mm | - | 172 W/m² | - |
| 1777478606 | 12.78° C | 62% | 1021.1 hPa | 0 mm | - | 76 W/m² | - |
| 1777478304 | 12.78° C | 64% | 1020.9 hPa | 0 mm | - | 98 W/m² | - |
| 1777478000 | 12.78° C | 64% | 1020.9 hPa | 0 mm | - | 78 W/m² | - |
| 1777477695 | 12.78° C | 64% | 1021.1 hPa | 0 mm | - | 59 W/m² | - |
| 1777477392 | 12.78° C | 64% | 1021.1 hPa | 0 mm | - | 54 W/m² | - |
| 1777477088 | 12.78° C | 65% | 1020.8 hPa | 0 mm | - | 67 W/m² | - |
| 1777476786 | 12.22° C | 67% | 1021.1 hPa | 0 mm | - | 61 W/m² | - |
| 1777476477 | 12.22° C | 66% | 1021.2 hPa | 0 mm | - | 48 W/m² | - |
| 1777476174 | 12.22° C | 66% | 1021.4 hPa | 0 mm | - | 64 W/m² | - |
| 1777475869 | 12.22° C | 67% | 1021.2 hPa | 0 mm | - | 88 W/m² | - |
| 1777475566 | 12.22° C | 68% | 1021 hPa | 0 mm | - | 75 W/m² | - |
| 1777475262 | 11.67° C | 68% | 1020.9 hPa | 0 mm | - | 51 W/m² | - |
| 1777474957 | 11.67° C | 68% | 1020.7 hPa | 0 mm | - | 53 W/m² | - |
| 1777474654 | 11.67° C | 68% | 1021 hPa | 0 mm | - | 47 W/m² | - |
* Rain latest hour (hover to see other rain measurements)
** Current wind speed in m/s (hover to see current wind gust speed)